Location: Castle
(40.7167°S, 175.9500°E)
Time: 02:18:34
(UTC+00:00)

Cosmos 2112 Rocket - Pass Details

Date: 04 August 2024
Orbit: 753 x 785 km, 74.1° (Epoch: 07 September)

Event Time Altitude Azimuth Distance (km) Brightness Sun altitude
Exits shadow 17:30:56 41° 288° (WNW) 1,114 4.4 -20.6°
Drops below altitude 10° 17:35:34 10° 351° (N) 2,288 6.4 -19.7°
Sets 17:38:01 0° 358° (N) 3,201 7.3 -19.2°
